Regional Weather Roundup
Issued by NWS

Home | Current Version | Previous Version | Graphics & Text | Print | Product List | Glossary On
Versions: 1 2 3 4 5 6 7 8 9 10 11 12 13 14 15 16 17 18 19 20 21 22 23 24 25 26 27 28 29 30 31 32 33 34 35 36 37 38 39 40 41 42 43 44 45 46 47 48 49 50
000
ASUS43 KOAX 022302
RWRNE

WEATHER ROUNDUP FOR NEBRASKA
NATIONAL WEATHER SERVICE OMAHA NE
600 PM CDT WED SEP 02 2015

NOTES: SATELLITE DATA IS BEING USED TO AUGMENT CLOUD COVER ABOVE
       12000 FEET.
       "FAIR" INDICATES FEW OR NO CLOUDS BELOW 12,000 FEET WITH NO
       SIGNIFICANT WEATHER AND/OR OBSTRUCTIONS TO VISIBILITY.

  * THESE STATIONS DO NOT REPORT WEATHER SUCH AS RAIN...SNOW OR FOG.

NEZ001>004-019>022-054>056-030000-
NEBRASKA PANHANDLE

CITY           SKY/WX    TMP DP  RH WIND       PRES   REMARKS
SCOTTSBLUFF    SUNNY     94  38  14 CALM      29.88F
ALLIANCE       SUNNY     94  41  16 VRB7      29.88F HX  90
CHADRON        SUNNY     98  43  15 SE9       29.80F HX  94
KIMBALL        MOSUNNY   87  41  19 NE3       29.95S
SIDNEY         SUNNY     93  42  17 S7        29.93F
$$

NEZ057>060-069>072-079>082-030000-
SOUTHWEST NEBRASKA

CITY           SKY/WX    TMP DP  RH WIND       PRES   REMARKS
NORTH PLATTE   SUNNY     92  62  36 SE10      29.83F HX  92
IMPERIAL       MOSUNNY   97  48  18 SW8       29.85F HX  93
LEXINGTON      MOSUNNY   93  60  32 SE10      29.84S HX  93
MCCOOK         SUNNY     99  54  22 SE9       29.82F HX  97
$$

NEZ005>010-023>029-035>040-094-030000-
NORTH CENTRAL NEBRASKA

CITY           SKY/WX    TMP DP  RH WIND       PRES   REMARKS
VALENTINE      MOSUNNY   98  42  14 S10G29    29.79R HX  94
AINSWORTH      SUNNY     97  50  20 S7        29.80S HX  93
BROKEN BOW     SUNNY     94  56  27 S12G17    29.84S HX  92
ORD            SUNNY     94  61  33 S10       29.81S HX  94
$$

NEZ041-046>049-061>064-073>077-083>087-030000-
SOUTH CENTRAL NEBRASKA

CITY           SKY/WX    TMP DP  RH WIND       PRES   REMARKS
GRAND ISLAND   MOSUNNY   93  62  35 S15       29.83S HX  93
AURORA         MOSUNNY   92  64  39 S10       29.82S HX  93
HASTINGS       MOSUNNY   93  65  39 S6        29.83F HX  95
KEARNEY *      MOSUNNY   91  64  40 SE9       29.83F HX  93
YORK           MOSUNNY   90  68  48 S8        29.83F HX  93
$$

NEZ011>018-030>034-042>045-030000-
NORTHEAST NEBRASKA

CITY           SKY/WX    TMP DP  RH WIND       PRES   REMARKS
NORFOLK        SUNNY     88  69  53 S13       29.82S HX  92
BLAIR          SUNNY     87  71  58 S9        29.84F HX  92
COLUMBUS *     SUNNY     90  70  51 S6        29.82S HX  95
FREMONT        SUNNY     88  70  54 SE9       29.84S HX  93
TEKAMAH        SUNNY     87  74  64 S10       29.82F HX  95
$$

NEZ050>053-065>068-078-088>093-030000-
SOUTHEAST NEBRASKA

CITY           SKY/WX    TMP DP  RH WIND       PRES   REMARKS
LINCOLN        SUNNY     92  68  45 S15G23    29.82F HX  96
OMAHA EPPLEY   MOSUNNY   90  70  51 S18G25    29.83F HX  95
FALLS CITY     SUNNY     90  69  50 S13G23    29.86F HX  94
PLATTSMOUTH    SUNNY     86  69  57 SE8       29.85F HX  90
$$

NEZ044-045-051>053-067-030000-
OMAHA AREA

CITY           SKY/WX    TMP DP  RH WIND       PRES   REMARKS
OMAHA EPPLEY   MOSUNNY   90  70  51 S18G25    29.83F HX  95
BLAIR          SUNNY     87  71  58 S9        29.84F HX  92
FREMONT        SUNNY     88  70  54 SE9       29.84S HX  93
OFFUTT AFB     SUNNY     89  72  57 S10       29.83F HX  95
PLATTSMOUTH    SUNNY     86  69  57 SE8       29.85F HX  90
$$




USA.gov is the U.S. government's official web portal to all federal, state and local government web resources and services.